ATLAS 5 CENTAUR DEB, 43963

Orbit data source: Space-Track

ATLAS 5 CENTAUR DEB, 43963 is space debris in HEO originally from a launch on Wed, 17 Sep 2014 UTC launched from the Air Force Eastern Test Range (AFETR). Debris objects in space refer to the collection of defunct objects orbiting the Earth. Examples of debris include non-operational satellites, rocket bodies, and fragments generated from explosions, collisions, or faulty payload assembly.

Loading next visibility...
Identifier
43963, 2014-055S
Orbit
HEO
Country
Flag of USUS
Related business
Flag of USUnited Launch Alliance/Lockheed Martin (US)
Manufacturer
Unknown
Mission
Spacecraft
Bus & Motor
Unknown
Mass
Unknown
Launch date (UTC)
2014-09-17 (11 years ago)
Launch vehicle
Unknown
Launch site
Air Force Eastern Test Range (AFETR)
Object type
Payload
Rocket body
Debris
Shape & HBR
Unknown shape, 1.1 m
Radar Cross Section
Small (<0.1 m²)

Expand to show TLE details & history
Last TLE update: 2 weeks ago

TLE from 2 weeks ago
0 ATLAS 5 CENTAUR DEB
1 43963U 14055S   25276.11607513 -.00000003  00000-0  00000-0 0  9990
2 43963  20.1435 150.3962 5001482 155.0302 241.1124  1.87943741 48634
Epoch: 2025-10-03T02:47Z
TLE epoch observation values (Epoch: 2025-10-03T02:47:08.891Z)
Latitude
-0°
Longitude
96.56479°
Altitude
31,683.221 km
Speed
2.564 km/s
True Right ascension
10h 01m 40s
True Declination
0° 00' 00"
Sunlit
Object was in daylight at epoch
Visualization orbit readout
Latitude
Unknown
Longitude
Unknown
Altitude
Unknown
Speed
Unknown
Apparent Right ascension
Unknown
Apparent Declination
Unknown
Sunlit
N/A
Visualization observer readout
Local Sidereal Time
02:11:20
Azimuth
Unknown
Elevation
Unknown
Doppler factor
Unknown
Orbital elements
Apogee altitude
35,233.6 km
Perigee altitude
7,486.961 km
Semi-major axis
27,738.417 km
Eccentricity
0.50015
Inclination
20.1435°
RAAN
150.3962°
Arg. of periapsis
155.0302°
True anomaly
204.95876°
Mean anomaly
241.1124°
Eccentric anomaly
221.95447°
Mean motion
0.46981 °/min
Orbital period
766.27 mins
BSTAR
0
Loading maneuver chart data...
Computing Atmospheric mass density...

Documentation

Showing up to 5 results
|